Regional Weather Roundup
Issued by NWS

Home | Current Version | Previous Version | Text Only | Print | Product List | Glossary Off
Versions: 1 2 3 4 5 6 7 8 9 10 11 12 13 14 15 16 17 18 19 20 21 22 23 24 25 26 27 28 29 30 31 32 33 34 35 36 37 38 39 40 41 42 43 44 45 46 47 48 49 50

089
ASUS44 KLIX 222201
RWRLA
LOUISIANA WEATHER ROUNDUP
NATIONAL WEATHER SERVICE NEW ORLEANS LA
400 PM CST SAT NOV 22 2014

NOTE: "FAIR" INDICATES FEW OR NO CLOUDS BELOW 12,000 FEET WITH NO
      SIGNIFICANT WEATHER AND/OR OBSTRUCTIONS TO VISIBILITY.
      SKY/WX - SKY CONDITION AND SIGNIFICANT WEATHER.
      TMP - AIR TEMPERATURE.    DP   - DEWPOINT TEMPERATURE.
      RH  - RELATIVE HUMIDITY.  PRES - PRESSURE.
      HX  - HEAT INDEX.         WCI  - WIND CHILL INDEX.

*  THESE STATIONS ARE NOT NWS OR FAA STATIONS AND ARE NOT UNDER
   NWS QUALITY CONTROL.

LAZ040-048-061>063-065-066-069-222300-
SOUTHEAST LOUISIANA

CITY           SKY/WX    TMP DP  RH WIND       PRES   REMARKS
N.O. AUDUBON     N/A     67  62  84 MISG        N/A
N.O. INTL ARPT CLOUDY    66  59  78 E7        30.06F
N.O. LAKEFRONT CLOUDY    62  57  83 E12       30.08R
N.O. DOWNTOWN* MOCLDY    63  55  77 NE5       30.08S
SLIDELL        CLOUDY    64  56  75 VRB6      30.08F
BATON ROUGE    CLOUDY    66  58  75 E14       30.03F
BOOTHVILLE     CLOUDY    66  64  93 E8        30.06R
BELLE CHASSE   CLOUDY    66  59  78 E12       30.06S
BOGALUSA*      NOT AVBL
NEW ROADS*     NOT AVBL
GONZALES*      NOT AVBL
HAMMOND*       NOT AVBL
HOUMA*         PTSUNNY   68  63  83 E16       30.04F
PORT FOURCHON* PTCLDY    68  64  88 E8        30.07R

$$

LAZ041-044-053-054-222300-
SOUTHWEST LOUISIANA

CITY           SKY/WX    TMP DP  RH WIND       PRES   REMARKS
LAKE CHARLES   CLOUDY    69  61  75 SE18      29.93F
LAFAYETTE      CLOUDY    70  59  68 E9G17     29.96F
PATTERSON      CLOUDY    70  63  78 E8G18     30.01F
SALT POINT       N/A     71  62  73 E8        29.97F
NEW IBERIA     CLOUDY    71  60  68 E17G24    29.97F
CHENAULT AIRPK NOT AVBL

$$

LAZ027-028-222300-
CENTRAL LOUISIANA

CITY           SKY/WX    TMP DP  RH WIND       PRES   REMARKS
FORT POLK      CLOUDY    67  60  77 SE8       29.95F
ALEXANDRIA INT CLOUDY    69  58  67 SE13      29.97F
ALEXANDRIA     CLOUDY    69  58  67 SE8       30.00S

$$

LAZ001-002-222300-
NORTHWEST LOUISIANA

CITY           SKY/WX    TMP DP  RH WIND       PRES   REMARKS
SHREVEPORT     CLOUDY    68  58  70 SE8       29.94F
BARKSDALE AFB  CLOUDY    67  57  68 SE14      29.95F
DTN SHREVEPORT CLOUDY    67  56  67 SE8       29.94F

$$

LAZ014-016-222300-
NORTHEAST LOUISIANA

CITY           SKY/WX    TMP DP  RH WIND       PRES   REMARKS
MONROE         CLOUDY    67  56  67 S7        30.01F
TALLULAH       CLOUDY    69  54  58 SE9       30.02F

$$




USA.gov is the U.S. government's official web portal to all federal, state and local government web resources and services.